TimeCEST,TemperatureF,Dew PointF,Humidity,Sea Level PressureIn,VisibilityMPH,Wind Direction,Wind SpeedMPH,Gust SpeedMPH,PrecipitationIn,Events,Conditions,WindDirDegrees,DateUTC
12:00 AM,53,51,89,30.12,25,West,3.5,,,,,270,2013-07-11 22:00:00
1:00 AM,48,48,98,30.11,16,Calm,Calm,,,,Clear,,2013-07-11 23:00:00
2:00 AM,46,46,100,30.11,14,Calm,Calm,,,,Clear,,2013-07-12 00:00:00
3:00 AM,47,46,97,30.11,13,Calm,Calm,,,,,,2013-07-12 01:00:00
4:00 AM,46,46,100,30.11,14,Calm,Calm,,,,Clear,,2013-07-12 02:00:00
5:00 AM,46,46,100,30.11,14,Calm,Calm,,,,Clear,,2013-07-12 03:00:00
6:00 AM,48,48,98,30.11,16,Calm,Calm,,,,Clear,,2013-07-12 04:00:00
7:00 AM,53,53,100,30.12,9,West,1.2,,,,Clear,280,2013-07-12 05:00:00
8:00 AM,61,60,97,30.12,13,NW,3.5,,,,Clear,310,2013-07-12 06:00:00
9:00 AM,66,60,76,30.13,22,NNW,4.6,,,,,340,2013-07-12 07:00:00
10:00 AM,70,55,48,30.14,22,North,5.8,,,,Scattered Clouds,10,2013-07-12 08:00:00
11:00 AM,70,55,48,30.14,22,North,5.8,,,,Scattered Clouds,10,2013-07-12 09:00:00
12:00 PM,70,55,49,30.14,25,NNW,15.7,,,,Scattered Clouds,330,2013-07-12 10:00:00
1:00 PM,71,48,33,30.14,19,NNW,13.4,,,,Scattered Clouds,330,2013-07-12 11:00:00
2:00 PM,72,47,30,30.14,19,WNW,9.2,,,,Scattered Clouds,300,2013-07-12 12:00:00
3:00 PM,72,48,31,30.14,22,NNW,17.9,,,,,340,2013-07-12 13:00:00
4:00 PM,72,45,27,30.13,25,NNW,15.7,,,,Scattered Clouds,340,2013-07-12 14:00:00
5:00 PM,71,50,37,30.13,25,NNW,17.9,,,,,330,2013-07-12 15:00:00
6:00 PM,70,49,37,30.12,19,NNW,17.9,,,,,340,2013-07-12 16:00:00
7:00 PM,69,50,39,30.12,25,WNW,15.7,,,,,290,2013-07-12 17:00:00
9:00 PM,64,51,53,30.12,31,WNW,6.7,,,,,300,2013-07-12 19:00:00
10:00 PM,62,49,54,30.13,31,Calm,Calm,,,,,,2013-07-12 20:00:00
11:00 PM,56,51,76,30.14,28,Calm,Calm,,,,,,2013-07-12 21:00:00